Regional Weather Roundup
Issued by NWS

Home | Current Version | Previous Version | Text Only | Print | Product List | Glossary Off
Versions: 1 2 3 4 5 6 7 8 9 10 11 12 13 14 15 16 17 18 19 20 21 22 23 24 25 26 27 28 29 30 31 32 33 34 35 36 37 38 39 40 41 42 43 44 45 46 47 48 49 50

000
ASUS45 KSLC 260710
RWRUT

UTAH REGIONAL WEATHER ROUNDUP
NATIONAL WEATHER SERVICE SALT LAKE CITY UT
100 AM MDT TUE MAY 26 2015

UTZ001>011-023>025-260800-

NORTHERN UTAH

CITY           SKY/WX    TMP DP  RH WIND       PRES   REMARKS
BRIGHAM CITY   MOCLDY    53  49  86 N3        29.99S
HILL AFB       MOCLDY    54  43  66 E10       29.99S
LOGAN          CLEAR     47  45  93 E5        30.00R
OGDEN          MOCLDY    54  45  71 S9        29.98S
PROVO AIRPORT  CLOUDY    54  45  71 S9        30.02R
SALT LAKE CITY MOCLDY    58  46  64 S6        29.98R
VERNAL         PTCLDY    48  42  80 NW6       30.03S
WENDOVER       PTCLDY    55  46  71 SW6       29.98F
HEBER CITY     PTCLDY    46  39  76 SW5       30.05R
WEST JORDAN    CLOUDY    54  48  82 SW5       30.01R

$$

UTZ012>022-026-027-260800-

SOUTHERN/CENTRAL UTAH

CITY           SKY/WX    TMP DP  RH WIND       PRES   REMARKS
BLANDING       MOCLDY    46  44  91 N5        30.16S
BRYCE CANYON   CLEAR     41  36  82 W7        30.14
CEDAR CITY     MOCLDY    53  42  66 W5        30.02F
DELTA          CLOUDY    55  48  76 E8        30.02F
HANKSVILLE     CLEAR     54  45  71 NE5       30.00F
MILFORD        CLOUDY    55  50  83 NE7       30.02R
MOAB/CYNLANDS  CLEAR     54  42  64 CALM      29.97S
PRICE          PTCLDY    48  40  73 N9        30.04S
ST GEORGE      PTSUNNY   68  43  40 E6        29.93F

$$

REGIONAL REPORTS     COLORADO/ARIZONA

CITY           SKY/WX    TMP DP  RH WIND       PRES   REMARKS
CRAIG, CO      CLOUDY   N/A N/A N/A CALM      30.08S
GRAND JUNCTION PTCLDY    53  45  74 S3        30.02R
RIFLE          MOCLDY    48  44  86 CALM      30.09S
MONTROSE       MOCLDY    48  41  76 SE8       30.09S
CORTEZ         CLEAR     42  40  92 NE6       30.10R
PAGE, AZ       CLEAR     64  43  46 SW5       29.98S
GRAND CANYON   CLEAR     40  38  93 CALM      30.14R
KINGMAN        CLEAR     66  35  31 S9        29.98R
FLAGSTAFF      CLEAR     44  41  89 S3        30.17R

$$

REGIONAL REPORTS    NEVADA/IDAHO/WYOMING

CITY           SKY/WX    TMP DP  RH WIND       PRES   REMARKS
LAS VEGAS, NV  PTCLDY    79  38  22 SW14      29.82R
ELY            CLOUDY    49  45  86 W7        30.09F
ELKO           PTCLDY    48  44  86 N3        30.03S
POCATELLO, ID  MOCLDY    53  48  83 S8        29.97R
BURLEY         PTCLDY    51  45  79 SW8       29.95R
EVANSTON, WY   PTCLDY    43  38  82 SW6       30.09R
ROCK SPRINGS   PTCLDY    44  40  85 SW9       30.05F
KEMMERER       PTCLDY    41  37  87 CALM      30.09R

$$



USA.gov is the U.S. government's official web portal to all federal, state and local government web resources and services.